This is the latest recevied weather packets stored in our database for station/object WW5JC. If no packets are shown the sender has not sent any weather packets the latest 10 day(s).
| Time | Temp. | Humidity | Pressure | Rain* | Wind** | Luminosity | Snow |
|---|---|---|---|---|---|---|---|
| 1777647541 | 14.44° C | 86% | 1019.3 hPa | 0 mm | - | 100 W/m² | - |
| 1777647238 | 13.89° C | 85% | 1019.2 hPa | 0 mm | - | 104 W/m² | - |
| 1777646935 | 14.44° C | 86% | 1019.5 hPa | 0 mm | - | 122 W/m² | - |
| 1777646631 | 14.44° C | 87% | 1019.3 hPa | 0 mm | - | 142 W/m² | - |
| 1777646327 | 13.89° C | 87% | 1019.6 hPa | 0 mm | - | 131 W/m² | - |
| 1777646024 | 13.89° C | 87% | 1019.5 hPa | 0 mm | - | 130 W/m² | - |
| 1777645721 | 13.89° C | 89% | 1019.5 hPa | 0 mm | - | 148 W/m² | - |
| 1777645417 | 13.89° C | 91% | 1019.7 hPa | 0 mm | - | 115 W/m² | - |
| 1777645113 | 13.89° C | 91% | 1019.4 hPa | 0 mm | - | 120 W/m² | - |
| 1777644810 | 13.33° C | 92% | 1019.6 hPa | 0 mm | - | 96 W/m² | - |
| 1777644508 | 13.33° C | 92% | 1019.7 hPa | 0 mm | - | 89 W/m² | - |
| 1777644204 | 13.33° C | 92% | 1019.9 hPa | 0 mm | - | 88 W/m² | - |
| 1777643900 | 13.33° C | 92% | 1019.7 hPa | 0 mm | - | 73 W/m² | - |
| 1777643598 | 13.33° C | 92% | 1019.7 hPa | 0 mm | - | 62 W/m² | - |
| 1777643295 | 13.33° C | 93% | 1020 hPa | 0 mm | - | 63 W/m² | - |
| 1777642991 | 13.33° C | 92% | 1019.7 hPa | 0 mm | - | 74 W/m² | - |
| 1777642682 | 13.33° C | 93% | 1019.7 hPa | 0 mm | - | 69 W/m² | - |
| 1777642380 | 12.78° C | 94% | 1019.6 hPa | 0 mm | - | 57 W/m² | - |
| 1777642076 | 12.78° C | 94% | 1019.3 hPa | 0 mm | - | 48 W/m² | - |
| 1777641772 | 12.78° C | 94% | 1019.3 hPa | 0 mm | - | 36 W/m² | - |
| 1777641472 | 12.78° C | 95% | 1019 hPa | 0 mm | - | 44 W/m² | - |
| 1777641167 | 12.78° C | 95% | 1019 hPa | 0 mm | - | 58 W/m² | - |
| 1777640863 | 12.78° C | 94% | 1019.3 hPa | 0 mm | - | 37 W/m² | - |
| 1777640561 | 12.78° C | 94% | 1018.9 hPa | 0 mm | - | 48 W/m² | - |
| 1777640257 | 12.78° C | 94% | 1019.1 hPa | 0 mm | - | 50 W/m² | - |
* Rain latest hour (hover to see other rain measurements)
** Current wind speed in m/s (hover to see current wind gust speed)